NLWWNSFA

Guest
Details From NLWW - WALLIS
To NSFA - Faleolo International
Flight Number -
Tags generated
Created
Modified
Stats Distance 247 nm / 458 km
Max Altitude 31,200 ft / 9,510 m
Waypoints 4
Social Downloads 2
Likes 0
Share VATSIM

Download

Looking for another format? Having issues loading an existing format? Contact us
Advertisement - Login to hide

Notes

Basic altitude profile: - Ascent Rate: 2500ft/min - Ascent Speed: 250kts - Cruise Altitude: 35000ft - Cruise Speed: 420kts - Descent Rate: 1500ft/min - Descent Speed: 250kts Options: - Use NATs: yes - Use PACOTS: yes - Use low airways: no - Use high airways: yes

Route

NLWW OVLAD B577 ALAPI NSFA

ID Type Via Altitude Latitude Longitude Leg Dist Tot Dist Heading (true) Name
O NLWW APT - 0 ft / 0 m -13.23832˚ -176.19927˚ - 0 nm - WALLIS
OVLAD FIX - 31,200 ft / 9,510 m -13.45556˚ -174.71806˚ 87 nm 87 nm 99° / 98° -
ALAPI FIX B577 (AWY-HI) 8,200 ft / 2,499 m -13.76189˚ -172.50200˚ 130 nm 218 nm 98° / 98° -
O NSFA APT - 0 ft / 0 m -13.83002˚ -172.00910˚ 29 nm 247 nm 98° / 98° Faleolo International

Altitude Profile

Advertisement - Login to hide

Weather


0- 5 10 15 20 25 30 35+ Temperature / ° C

Clouds and Precipitation
Forecast for 2018-05-27 06:00 UTC. Updated 3 hours ago

Ground ~20,000 ft ~40,000 ft Winds

NLWW

Details ICAO NLWW (WLS)
Name WALLIS
Region Wallis and Futuna
Timezone Unknown (UTC+0.0)
Stats Elevation 79 ft / 24 m (AMSL)
Location -13.238320° -176.199267°
Runways 1
Magnetic Variation 11.544° E

METAR

Not found

TAF

TAF NLWW 270500Z 2706/2806 VRB02KT 9999 FEW025 SCT035 PROB30 TEMPO 2706/2712 4000 SHRA BKN014 FEW020TCU

Decode

Departure Runways

ID Width Length Bearing (true) Bearing (mag) Surface Threshold Offset Overrun Length
08 148 ft / 45 m 6,895 ft / 2,102 m 89.90° 78.36° Asphalt 0 ft / 0 m 0 ft / 0 m
26 148 ft / 45 m 6,895 ft / 2,102 m 269.90° 258.36° Asphalt 0 ft / 0 m 0 ft / 0 m

NSFA

Details ICAO NSFA (APW)
Name Faleolo International
Region American Samoa
Timezone Pacific/Apia (UTC+13.0)
Stats Elevation 58 ft / 18 m (AMSL)
Location -13.830023° -172.009102°
Runways 1
Magnetic Variation 11.674° E

METAR

Not found

TAF

TAF NSFA 270510Z 2706/2806 09012KT 9999 SCT025

Decode

Destination Runways

ID Width Length Bearing (true) Bearing (mag) Surface Threshold Offset Overrun Length
08 148 ft / 45 m 10,361 ft / 3,158 m 89.30° 77.63° Asphalt 515 ft / 157 m 0 ft / 0 m
26 148 ft / 45 m 10,361 ft / 3,158 m 269.30° 257.63° Asphalt 0 ft / 0 m 102 ft / 31 m

Approach Navaids

Runway Type Ident Frequency Range Bearing (true) Bearing (mag) Slope Elevation
08 Localiser IAP 109.90 MHz 18 nm / 33 km 89.50° 77.83° - 9 ft / 3 m (AMSL)
08 Glidescope IAP 109.90 MHz 10 nm / 19 km 89.30° 77.63° 3.00° 58 ft / 18 m (AMSL)
08 DME IAP 109.90 MHz 18 nm / 33 km - - - 58 ft / 18 m (AMSL)